Regional Weather Roundup
Issued by NWS Upton, NY

Current Version | Previous Version | Text Only | Print | Product List | Glossary Off
Versions: 1 2 3 4 5 6 7 8 9 10 11 12 13 14 15 16 17 18 19 20 21 22 23 24 25 26 27
000 ASUS41 KOKX 182105 RWROKX Regional Weather Roundup National Weather Service New York NY 400 PM EST SUN FEB 18 2018 Note: "FAIR" indicates few or no clouds below 12,000 feet with no significant weather and/or obstructions to visibility. NYZ071-072-176-178-NJZ106-104-182200- New York City Metro Area CITY SKY/WX TMP DP RH WIND PRES REMARKS Central Park FAIR 43 23 45 VRB5 30.39R Bronx Bot Gard N/A 43 23 45 NW13 30.38R Bronx Lehman C N/A 43 23 45 NW8 N/A LaGuardia Arpt PTSUNNY 44 24 45 NW10 30.37R Queens College N/A 43 25 49 NW8 N/A Kennedy Intl PTSUNNY 44 25 47 NW12 30.38R Breezy Point N/A 43 N/A N/A NW9G15 N/A Brooklyn Coll N/A 45 25 45 W12 N/A Staten Island N/A 45 25 45 N6 N/A Newark/Liberty PTSUNNY 45 23 42 NW9 30.38R Teterboro FAIR 44 24 45 NW13G20 30.37R $$ NYZ177-179-078>081-182200- Long Island New York CITY SKY/WX TMP DP RH WIND PRES REMARKS Jones Beach N/A 43 N/A N/A NW13G18 N/A Wantagh N/A 45 25 45 W7 N/A Hempstead NOT AVBL Matinecock Pt N/A 43 N/A N/A W15 N/A Farmingdale FAIR 45 24 43 NW12 30.36R MacArthur/ISP PTSUNNY 45 22 40 NW7 30.35S Shirley FAIR 45 24 43 NW12 30.36R Mt Sinai Harb N/A N/A N/A N/A W1 N/A Westhampton FAIR 44 22 41 NW14 30.37R East Hampton FAIR 42 23 47 NW9 30.35R Southold N/A 41 27 56 W7 N/A Montauk N/A 43 28 55 NW13 30.34S $$ NYZ052-065-067-182200- Hudson Valley CITY SKY/WX TMP DP RH WIND PRES REMARKS White Plains FAIR 41 23 48 NW13 30.34R Larchmont Harb N/A 41 N/A N/A W12 N/A Croton On Huds N/A 41 N/A N/A W7 N/A Somers N/A 41 23 48 W5 N/A Brewster N/A 41 21 45 NW3 N/A Newburgh MOSUNNY 41 23 48 NW10 30.37R Montgomery FAIR 41 21 44 NW8 30.36R Otisville N/A 39 21 48 W3 N/A Warwick N/A 39 23 52 NW7 N/A WCI 34 Suffern N/A 39 23 52 NW9 N/A WCI 33 Poughkeepsie FAIR 42 21 43 W10 30.36R Albany PTSUNNY 37 24 59 W14 30.38R WCI 28 $$ NJZ001-105-106-008-010-013-015-019>022-104-182200- New Jersey CITY SKY/WX TMP DP RH WIND PRES REMARKS Newark/Liberty PTSUNNY 45 23 42 NW9 30.38R Teterboro FAIR 44 24 45 NW13G20 30.37R Caldwell FAIR 43 21 41 VRB7 30.38R Somerville FAIR 44 24 45 W6 30.36R Linden FAIR 45 24 42 NW5 30.38R Perth Amboy N/A 43 N/A N/A W9G18 N/A Sussex FAIR 41 22 46 VRB7 30.37R Andover N/A 42 21 43 NW3 30.37R Trenton FAIR 44 25 47 W9 30.39R Millville FAIR 46 28 49 NW9 30.41R Atlantic City FAIR 48 28 46 NW8 30.40R Wrightstown FAIR 45 26 47 NW9 30.37 Toms River FAIR 45 26 47 NW9 30.40R Belmar FAIR 45 25 45 W13 30.39R $$ PAZ047>061-062-071-182200- Eastern Pennsylvania CITY SKY/WX TMP DP RH WIND PRES REMARKS Philadelphia PTSUNNY 45 24 43 W8 30.41R Allentown FAIR 42 23 46 W7 30.38R Scranton FAIR 41 23 48 VRB3 30.36R $$ CTZ002-004>006-009-010-012-RIZ004-006-007-MAZ004-011-015-182200- Southern New England In CT CITY SKY/WX TMP DP RH WIND PRES REMARKS Bradley Intl FAIR 39 23 52 NW13 30.35R WCI 31 Hartford FAIR 41 23 48 NW7 30.36R Danbury FAIR 43 20 39 W9 30.35R Wtrbury/Oxford FAIR 40 22 48 VRB6 30.34R Norwalk Harbor N/A 43 N/A N/A NW15 N/A Bridgeport FAIR 41 27 57 SW7 30.36R Meriden FAIR 42 22 44 VRB7 30.35R New Haven FAIR 44 23 43 W6 30.35R Chester FAIR 43 21 42 VRB5G13 30.34R Groton FAIR 44 24 45 NW13 30.34R Willimantic FAIR 41 23 48 W13 30.34R In RI CITY SKY/WX TMP DP RH WIND PRES REMARKS Providence FAIR 44 22 41 NW9 30.32 Block Island FAIR 41 28 60 W10G17 30.33R Westerly FAIR 45 24 43 VRB7G21 30.33R In MA CITY SKY/WX TMP DP RH WIND PRES REMARKS Boston FAIR 43 22 43 NW8 30.30R Worcester FAIR 38 21 50 W10 30.28R WCI 31 Westfield FAIR 39 23 52 W12 30.34R WCI 32 Provincetown FAIR 40 29 64 NW8 30.33R WCI 34 Nantucket FAIR 42 29 59 N9 30.31R $$ ANZ330-335-338-340-345-350-353-355-182200- Coastal Marine Observations STATION/POSITION TIME SKY/WX TEMP WIND PRES VSBY WAVE AIR SEA DIR/SP/G HT/PER (UTC) (F) (DEG/KT/KT) (MB) (MI) (FT/S) NY Harb Entrance 2050 42 40 280/ 8/ 10 1028.3 2/ 8 20 S Fire Island 2050 41 42 270/ 8/ 10 1028.8 2/ 8 15 E Barnegat Li 2030 41 N/A 2/ 8 Hudson Canyon 2050 41 47 330/ 14/ 16 1028.5 5/ 6 Kings Point 2018 41 35 340/ 12/ 14 1029.1 Execution Rocks NOT AVBL Western LI Sound NOT AVBL Central LI Sound 2045 39 240/ 8/ 10 N/A 1 Robbins Reef 2030 43 310/ 8/ 13 1028.9 $$ >>>>>>>>>>>>>>>>>>>>>>>>>>>> KEY <<<<<<<<<<<<<<<<<<<<<<<<<<< > < > SKY/WX - Sky Condition/Present Weather < > TMP - Temperature in Fahrenheit < > DP - Dew Point in Fahrenheit < > RH - Relative Humidity in Percent < > WIND - Direction (from) and Speed in MPH < > PRES - Mean Sea Level Pressure (inches of Hg) < > WCI - Wind Chill Index < > VSB - Visibility in Miles < > HX - Heat Index < > TC - Temperature in Celsius < > VRB - Varibale Wind Direction < > < >>>>>>>>>>>>>>>>>>>>>>>>>>>> KEY <<<<<<<<<<<<<<<<<<<<<<<<<<<

USA.gov is the U.S. government's official web portal to all federal, state and local government web resources and services.